SWS12 EDDN-LFBZ

Flight info

Callsign SWS12
Flight time 0h 57m
Altitude 24000
Route BOLSI1G BOLSI Y166 DKB N869 TEDGO/N0272F230 N869 NATOR DCT TUFTA DCT TIS DCT ESISI DCT BAKTA DCT MAGEC
Aircraft PC12/L-SDFGRWY/S

Departure

Time 2026-05-08 07:32
Airport Nuremberg Airport (EDDN)

Arrival

Time 2026-05-08 08:30
Airport Biarritz Pays Basque airport (LFBZ)
Time Latitude Longitude Altitude Speed Heading
2026-05-08 07:31 49.49704 11.09493 1040 ft 0 kts 278°
2026-05-08 07:31 49.49716 11.09369 1038 ft 40 kts 278°
2026-05-08 07:32 49.49788 11.08630 1025 ft 97 kts 278°
2026-05-08 07:32 49.49913 11.07434 1177 ft 120 kts 281°
2026-05-08 07:32 49.50012 11.06093 1564 ft 136 kts 277°
2026-05-08 07:32 49.50165 11.04537 1892 ft 153 kts 281°
2026-05-08 07:33 49.50311 11.02919 2394 ft 163 kts 279°
2026-05-08 07:33 49.50462 11.01222 3194 ft 152 kts 280°
2026-05-08 07:33 49.50636 10.99590 3877 ft 157 kts 281°
2026-05-08 07:33 49.50812 10.97909 4580 ft 157 kts 278°
2026-05-08 07:34 49.50965 10.96291 5345 ft 155 kts 279°
2026-05-08 07:34 49.51156 10.94644 6036 ft 156 kts 282°
2026-05-08 07:34 49.51250 10.92996 6779 ft 154 kts 265°
2026-05-08 07:34 49.50962 10.91429 7448 ft 156 kts 243°
2026-05-08 07:35 49.50436 10.89931 8079 ft 160 kts 242°
2026-05-08 07:35 49.49980 10.88386 8756 ft 161 kts 246°
2026-05-08 07:35 49.49480 10.86823 9429 ft 163 kts 245°
2026-05-08 07:35 49.48996 10.85241 10121 ft 165 kts 245°
2026-05-08 07:36 49.48497 10.83642 10750 ft 167 kts 245°
2026-05-08 07:36 49.48002 10.82019 11400 ft 168 kts 245°
2026-05-08 07:36 49.47500 10.80382 12061 ft 170 kts 245°
2026-05-08 07:36 49.46986 10.78731 12727 ft 172 kts 242°
2026-05-08 07:37 49.46216 10.77312 13403 ft 176 kts 220°
2026-05-08 07:37 49.45123 10.76415 13962 ft 188 kts 199°
2026-05-08 07:37 49.43742 10.76197 14240 ft 208 kts 182°
2026-05-08 07:37 49.42291 10.76192 14790 ft 209 kts 183°
2026-05-08 07:38 49.40828 10.76165 15331 ft 211 kts 183°
2026-05-08 07:38 49.39371 10.76137 15874 ft 212 kts 183°
2026-05-08 07:38 49.37888 10.76112 16438 ft 214 kts 184°
2026-05-08 07:38 49.36390 10.76085 17000 ft 216 kts 184°
2026-05-08 07:39 49.34882 10.76059 17550 ft 217 kts 184°
2026-05-08 07:39 49.33363 10.76032 18101 ft 219 kts 184°
2026-05-08 07:39 49.31832 10.76005 18616 ft 221 kts 184°
2026-05-08 07:39 49.30289 10.75978 19092 ft 222 kts 184°
2026-05-08 07:40 49.28734 10.75950 19575 ft 224 kts 184°
2026-05-08 07:40 49.27171 10.75919 20066 ft 225 kts 186°
2026-05-08 07:40 49.25643 10.75481 20548 ft 222 kts 203°
2026-05-08 07:40 49.24277 10.74409 21015 ft 220 kts 218°
2026-05-08 07:41 49.23167 10.72813 21474 ft 219 kts 233°
2026-05-08 07:41 49.22390 10.70823 21929 ft 218 kts 249°
2026-05-08 07:41 49.21957 10.68596 22382 ft 219 kts 256°
2026-05-08 07:41 49.21578 10.66354 22821 ft 221 kts 256°
2026-05-08 07:42 49.21186 10.64072 23248 ft 223 kts 256°
2026-05-08 07:42 49.20795 10.61773 23666 ft 224 kts 256°
2026-05-08 07:42 49.20402 10.59459 24015 ft 226 kts 256°
2026-05-08 07:42 49.19998 10.57085 24147 ft 237 kts 256°
2026-05-08 07:43 49.19571 10.54580 24157 ft 249 kts 256°
2026-05-08 07:43 49.19126 10.51972 24159 ft 258 kts 256°
2026-05-08 07:43 49.18666 10.49285 24148 ft 263 kts 256°
2026-05-08 07:43 49.18198 10.46556 24147 ft 267 kts 256°
2026-05-08 07:44 49.17725 10.43798 24141 ft 269 kts 256°
2026-05-08 07:44 49.17248 10.41025 24143 ft 270 kts 256°
2026-05-08 07:44 49.16769 10.38247 24143 ft 270 kts 256°
2026-05-08 07:44 49.16291 10.35471 24180 ft 270 kts 256°
2026-05-08 07:45 49.15825 10.32702 24200 ft 270 kts 256°
2026-05-08 07:45 49.15327 10.29946 24178 ft 270 kts 255°
2026-05-08 07:45 49.14417 10.24622 24233 ft 269 kts 256°
2026-05-08 07:45 49.10217 10.13418 24345 ft 271 kts 242°
2026-05-08 07:46 49.06431 10.03593 24461 ft 272 kts 241°
2026-05-08 07:46 49.02571 9.93680 24581 ft 272 kts 240°
2026-05-08 07:46 48.98683 9.83741 24698 ft 273 kts 240°
2026-05-08 07:46 48.94797 9.73841 24802 ft 273 kts 240°
2026-05-08 07:47 48.90891 9.63928 24907 ft 274 kts 240°
2026-05-08 07:47 48.86973 9.54022 24989 ft 274 kts 240°
2026-05-08 07:47 48.83033 9.44098 25081 ft 274 kts 240°
2026-05-08 07:47 48.79133 9.34313 25149 ft 267 kts 240°
2026-05-08 07:48 48.75368 9.24896 25926 ft 260 kts 240°
2026-05-08 07:48 48.73680 9.20688 26100 ft 265 kts 240°
2026-05-08 07:48 48.72720 9.18293 26208 ft 265 kts 240°
2026-05-08 07:48 48.69098 9.09295 27371 ft 250 kts 239°
2026-05-08 07:49 48.65366 9.00046 28101 ft 264 kts 239°
2026-05-08 07:49 48.61527 8.90576 29845 ft 247 kts 239°
2026-05-08 07:49 48.58049 8.82015 31717 ft 240 kts 238°
2026-05-08 07:49 48.54542 8.73414 31894 ft 241 kts 238°
2026-05-08 07:50 48.51014 8.64791 31907 ft 241 kts 238°
2026-05-08 07:50 48.47543 8.56334 31917 ft 240 kts 238°
2026-05-08 07:50 48.44025 8.47788 31934 ft 240 kts 237°
2026-05-08 07:50 48.40503 8.39259 31943 ft 239 kts 237°
2026-05-08 07:51 48.37032 8.30881 32050 ft 232 kts 237°
2026-05-08 07:51 48.33620 8.22672 32080 ft 227 kts 237°
2026-05-08 07:51 48.30327 8.14772 32086 ft 227 kts 237°
2026-05-08 07:51 48.26965 8.06730 32004 ft 231 kts 237°
2026-05-08 07:52 48.23142 7.97612 31525 ft 259 kts 237°
2026-05-08 07:52 48.19358 7.88621 30687 ft 257 kts 238°
2026-05-08 07:52 48.15481 7.79442 30105 ft 280 kts 238°
2026-05-08 07:52 48.11485 7.70005 30081 ft 256 kts 237°
2026-05-08 07:53 48.07594 7.60854 30083 ft 259 kts 237°
2026-05-08 07:53 48.03744 7.51829 30073 ft 256 kts 237°
2026-05-08 07:53 47.99916 7.42885 30072 ft 257 kts 237°
2026-05-08 07:53 47.96708 7.35429 30071 ft 257 kts 237°
2026-05-08 07:54 47.95745 7.33186 30076 ft 257 kts 237°
2026-05-08 07:54 47.94785 7.30927 30079 ft 258 kts 237°
2026-05-08 07:54 47.93816 7.28681 30079 ft 258 kts 237°
2026-05-08 07:54 47.92840 7.26426 30080 ft 259 kts 237°
2026-05-08 07:55 47.91866 7.24174 30081 ft 259 kts 237°
2026-05-08 07:55 47.90903 7.21940 30080 ft 259 kts 237°
2026-05-08 07:55 47.89915 7.19654 30077 ft 260 kts 237°
2026-05-08 07:55 47.88935 7.17390 30077 ft 260 kts 237°
2026-05-08 07:56 47.87955 7.15125 30080 ft 260 kts 237°
2026-05-08 07:56 47.86972 7.12858 30081 ft 261 kts 237°
2026-05-08 07:56 47.85987 7.10591 30071 ft 261 kts 237°
2026-05-08 07:56 47.85013 7.08350 30066 ft 262 kts 237°
2026-05-08 07:57 47.84027 7.06070 30061 ft 262 kts 237°
2026-05-08 07:57 47.83038 7.03792 30059 ft 262 kts 237°
2026-05-08 07:57 47.82048 7.01518 30064 ft 261 kts 237°
2026-05-08 07:57 47.81058 6.99253 30065 ft 261 kts 237°
2026-05-08 07:58 47.80071 6.96981 30053 ft 261 kts 237°
2026-05-08 07:58 47.79100 6.94755 30053 ft 253 kts 237°
2026-05-08 07:58 47.78150 6.92578 30058 ft 251 kts 237°
2026-05-08 07:58 47.77194 6.90393 30058 ft 254 kts 237°
2026-05-08 07:59 47.76227 6.88179 30062 ft 256 kts 237°
2026-05-08 07:59 47.75265 6.85979 30068 ft 257 kts 237°
2026-05-08 07:59 47.74286 6.83745 30072 ft 258 kts 237°
2026-05-08 07:59 47.73304 6.81506 30074 ft 259 kts 237°
2026-05-08 08:00 47.72326 6.79277 30072 ft 256 kts 237°
2026-05-08 08:00 47.71356 6.77065 30069 ft 255 kts 237°
2026-05-08 08:00 47.68086 6.69630 30072 ft 253 kts 236°
2026-05-08 08:00 47.64202 6.60818 30079 ft 259 kts 236°
2026-05-08 08:01 47.60290 6.51985 30065 ft 253 kts 237°
2026-05-08 08:01 47.56433 6.43298 30060 ft 251 kts 236°
2026-05-08 08:01 47.50393 6.29746 30068 ft 257 kts 236°
2026-05-08 08:01 47.42914 6.13058 30039 ft 252 kts 236°
2026-05-08 08:02 47.39046 6.04469 30041 ft 250 kts 236°
2026-05-08 08:02 47.35138 5.95819 30052 ft 256 kts 236°
2026-05-08 08:02 47.29613 5.83632 30051 ft 257 kts 236°
2026-05-08 08:02 47.21898 5.66703 30042 ft 253 kts 236°
2026-05-08 08:03 47.13995 5.49476 30054 ft 255 kts 236°
2026-05-08 08:03 47.06024 5.32206 30048 ft 255 kts 236°
2026-05-08 08:03 46.98205 5.15367 30040 ft 248 kts 236°
2026-05-08 08:03 46.90411 4.98683 30038 ft 248 kts 236°
2026-05-08 08:04 46.82605 4.82074 30044 ft 246 kts 236°
2026-05-08 08:04 46.74847 4.65667 30041 ft 246 kts 236°
2026-05-08 08:04 46.67151 4.49486 30035 ft 246 kts 236°
2026-05-08 08:04 46.59333 4.33143 30041 ft 246 kts 236°
2026-05-08 08:05 46.51450 4.16761 30048 ft 251 kts 235°
2026-05-08 08:05 46.43409 4.00153 30044 ft 253 kts 236°
2026-05-08 08:05 46.35233 3.83356 30023 ft 256 kts 236°
2026-05-08 08:05 46.26977 3.66500 30022 ft 258 kts 236°
2026-05-08 08:06 46.18682 3.49672 30011 ft 252 kts 236°
2026-05-08 08:06 46.10468 3.33129 30022 ft 258 kts 236°
2026-05-08 08:06 46.02093 3.16315 30012 ft 254 kts 237°
2026-05-08 08:06 45.93592 2.99370 30014 ft 258 kts 237°
2026-05-08 08:07 45.84992 2.82335 30008 ft 261 kts 238°
2026-05-08 08:07 45.76324 2.65246 30006 ft 268 kts 238°
2026-05-08 08:07 45.67610 2.48208 29989 ft 264 kts 239°
2026-05-08 08:07 45.58904 2.31279 29994 ft 266 kts 239°
2026-05-08 08:08 45.50067 2.14169 29985 ft 265 kts 239°
2026-05-08 08:08 45.41446 1.97598 29994 ft 264 kts 239°
2026-05-08 08:08 45.32565 1.80625 29996 ft 265 kts 240°
2026-05-08 08:08 45.23713 1.63807 29996 ft 265 kts 240°
2026-05-08 08:09 45.17844 1.52717 29969 ft 264 kts 240°
2026-05-08 08:09 45.08889 1.35865 30007 ft 265 kts 240°
2026-05-08 08:09 44.99996 1.19230 29990 ft 264 kts 240°
2026-05-08 08:09 44.90954 1.02421 29984 ft 259 kts 240°
2026-05-08 08:10 44.82207 0.86246 29974 ft 259 kts 240°
2026-05-08 08:10 44.73322 0.69915 29969 ft 258 kts 239°
2026-05-08 08:10 44.64582 0.53934 29964 ft 257 kts 239°
2026-05-08 08:10 44.55810 0.37989 29964 ft 259 kts 239°
2026-05-08 08:11 44.46786 0.21672 29964 ft 262 kts 237°
2026-05-08 08:11 44.37839 0.05599 29958 ft 261 kts 237°
2026-05-08 08:11 44.28855 -0.10455 29947 ft 261 kts 236°
2026-05-08 08:11 44.19786 -0.26594 29941 ft 261 kts 235°
2026-05-08 08:12 44.10753 -0.42556 29940 ft 262 kts 235°
2026-05-08 08:12 44.01578 -0.58700 29937 ft 262 kts 234°
2026-05-08 08:12 43.92505 -0.74548 29939 ft 262 kts 234°
2026-05-08 08:12 43.83402 -0.90382 29934 ft 263 kts 233°
2026-05-08 08:13 43.81092 -0.94386 29936 ft 262 kts 233°
2026-05-08 08:13 43.79942 -0.96371 29946 ft 263 kts 233°
2026-05-08 08:13 43.78857 -0.98243 29906 ft 236 kts 233°
2026-05-08 08:13 43.77828 -1.00010 29105 ft 238 kts 233°
2026-05-08 08:14 43.76790 -1.01808 28393 ft 240 kts 233°
2026-05-08 08:14 43.75752 -1.03629 27727 ft 241 kts 233°
2026-05-08 08:14 43.74701 -1.05442 27095 ft 241 kts 232°
2026-05-08 08:14 43.73668 -1.07210 26527 ft 239 kts 232°
2026-05-08 08:15 43.72631 -1.08994 25951 ft 237 kts 232°
2026-05-08 08:15 43.71601 -1.10769 25401 ft 235 kts 232°
2026-05-08 08:15 43.70586 -1.12540 24846 ft 233 kts 236°
2026-05-08 08:15 43.70160 -1.14656 24300 ft 234 kts 274°
2026-05-08 08:16 43.70833 -1.16695 23726 ft 242 kts 311°
2026-05-08 08:16 43.72336 -1.17738 23137 ft 250 kts 351°
2026-05-08 08:16 43.74025 -1.17286 22548 ft 252 kts 30°
2026-05-08 08:16 43.75169 -1.15523 21975 ft 248 kts 69°
2026-05-08 08:17 43.75300 -1.13222 21405 ft 241 kts 107°
2026-05-08 08:17 43.74404 -1.11362 20842 ft 232 kts 147°
2026-05-08 08:17 43.72920 -1.10753 20325 ft 222 kts 186°
2026-05-08 08:17 43.71559 -1.11615 19795 ft 219 kts 226°
2026-05-08 08:18 43.70753 -1.13353 19250 ft 218 kts 234°
2026-05-08 08:18 43.69011 -1.15620 18431 ft 215 kts 211°
2026-05-08 08:18 43.66474 -1.17747 17342 ft 211 kts 211°
2026-05-08 08:18 43.64025 -1.19905 16289 ft 207 kts 212°
2026-05-08 08:19 43.61610 -1.22029 15287 ft 203 kts 212°
2026-05-08 08:19 43.59255 -1.24098 14328 ft 199 kts 212°
2026-05-08 08:19 43.57467 -1.25667 13590 ft 195 kts 212°
2026-05-08 08:19 43.56291 -1.26695 12628 ft 210 kts 212°
2026-05-08 08:20 43.54992 -1.27843 11606 ft 229 kts 212°
2026-05-08 08:20 43.53661 -1.29011 10958 ft 224 kts 211°
2026-05-08 08:20 43.52296 -1.30197 9773 ft 243 kts 211°
2026-05-08 08:20 43.50854 -1.31449 8908 ft 243 kts 211°
2026-05-08 08:21 43.49444 -1.32693 8095 ft 239 kts 211°
2026-05-08 08:21 43.48114 -1.34020 7273 ft 237 kts 224°
2026-05-08 08:21 43.47243 -1.35957 6493 ft 239 kts 246°
2026-05-08 08:21 43.46959 -1.38207 5716 ft 240 kts 265°
2026-05-08 08:22 43.46948 -1.40467 4935 ft 239 kts 266°
2026-05-08 08:22 43.46946 -1.42739 4136 ft 236 kts 268°
2026-05-08 08:22 43.47519 -1.44847 3388 ft 241 kts 310°
2026-05-08 08:22 43.48942 -1.45939 2800 ft 235 kts 350°
2026-05-08 08:23 43.50496 -1.45599 2237 ft 225 kts 30°
2026-05-08 08:23 43.51471 -1.44053 1655 ft 211 kts 73°
2026-05-08 08:23 43.51453 -1.42146 1167 ft 196 kts 107°
2026-05-08 08:23 43.51053 -1.40446 997 ft 173 kts 110°
2026-05-08 08:24 43.50649 -1.39027 981 ft 144 kts 125°
2026-05-08 08:24 43.49833 -1.38576 992 ft 145 kts 194°
2026-05-08 08:24 43.48870 -1.39493 1026 ft 192 kts 220°
2026-05-08 08:24 43.47818 -1.40805 1022 ft 200 kts 221°
2026-05-08 08:25 43.46941 -1.41901 974 ft 139 kts 221°
2026-05-08 08:25 43.46390 -1.42765 945 ft 115 kts 252°
2026-05-08 08:25 43.46633 -1.43761 864 ft 109 kts 304°
2026-05-08 08:25 43.46857 -1.44763 995 ft 115 kts 268°
2026-05-08 08:26 43.46876 -1.45873 980 ft 116 kts 270°
2026-05-08 08:26 43.46882 -1.47000 820 ft 119 kts 269°
2026-05-08 08:26 43.46876 -1.48130 663 ft 118 kts 266°
2026-05-08 08:26 43.46876 -1.49255 505 ft 118 kts 268°
2026-05-08 08:27 43.46858 -1.50369 377 ft 114 kts 266°
2026-05-08 08:27 43.46854 -1.50541 350 ft 113 kts 267°
2026-05-08 08:29 43.46849 -1.51073 262 ft 104 kts 270°
2026-05-08 08:29 43.46846 -1.51948 245 ft 78 kts 269°
2026-05-08 08:30 43.46837 -1.52536 249 ft 35 kts 269°
2026-05-08 08:30 43.46835 -1.52863 251 ft 41 kts 268°
2026-05-08 08:30 43.46843 -1.53637 257 ft 9 kts 301°
2026-05-08 08:31 43.46825 -1.53704 257 ft 16 kts 139°
2026-05-08 08:31 43.46825 -1.53532 256 ft 25 kts 92°
2026-05-08 08:31 43.46818 -1.53382 255 ft 1 kts 94°
2026-05-08 08:31 43.46825 -1.53298 254 ft 17 kts 80°
2026-05-08 08:32 43.46874 -1.53167 253 ft 16 kts 14°
2026-05-08 08:32 43.46984 -1.53218 254 ft 12 kts 337°
2026-05-08 08:32 43.47080 -1.53237 254 ft 0 kts 358°